Weather Roundup
Issued by NWS Corpus Christi, TX

Home | Current Version | Previous Version | Text Only | Print | Product List | Glossary On
Versions: 1 2 3 4 5 6 7 8 9 10 11 12 13 14 15 16 17 18 19 20 21 22 23 24 25 26 27 28 29 30 31 32 33 34 35 36 37 38 39 40 41 42 43 44 45 46 47 48 49 50
000
ASUS44 KCRP 291910
HRRCRP

SOUTH TEXAS REGIONAL WEATHER ROUNDUP
NATIONAL WEATHER SERVICE CORPUS CHRISTI TX
200 PM CDT SUN MAR 29 2015


TXZ229>244-292000-
...CORPUS CHRISTI AREA OBSERVATIONS...

CITY           SKY/WX    TMP DP  RH WIND       PRES   REMARKS
CORPUS CHRISTI MOSUNNY   78  65  63 SE25G36   30.11F
NAS CORPUS CHR SUNNY     77  65  66 S26G36    30.13F
ROCKPORT       SUNNY     78  63  59 S16G28    30.13F
KINGSVILLE NAS SUNNY     85  61  44 S16G28    30.10F
ALICE          SUNNY     86  56  35 S21G28    30.09F
FALFURRIAS     SUNNY     83  59  44 S14       30.09F
$$

...VICTORIA AREA OBSERVATIONS...

CITY           SKY/WX    TMP DP  RH WIND       PRES   REMARKS
VICTORIA       SUNNY     79  60  52 S24G33    30.14F
BEEVILLE       FAIR      81  62  52 S16G22    30.11F
PLEASANTON     SUNNY     81  58  46 SE14G20   30.10F
SAN ANTONIO    SUNNY     80  57  45 S14       30.10F
$$

...LAREDO AREA OBSERVATIONS...

CITY           SKY/WX    TMP DP  RH WIND       PRES   REMARKS
LAREDO         SUNNY     85  60  42 SE14      30.07F
COTULLA        SUNNY     83  58  42 SE13G20   30.07F
DEL RIO        SUNNY     80  55  42 SE10G16   30.03F
MCALLEN        SUNNY     86  62  44 SE20G29   30.10F
HEBBRONVILLE   NOT AVBL
$$

...OTHER TEXAS OBSERVATIONS...

CITY           SKY/WX    TMP DP  RH WIND       PRES   REMARKS
BROWNSVILLE    PTSUNNY   80  65  59 S29       30.14F
HOUSTON        MOSUNNY   79  60  52 S14G23    30.15F
COL. STATION   SUNNY     80  57  45 S23G30    30.09F
AUSTIN         SUNNY     79  58  48 S23G29    30.08F
WACO           SUNNY     78  59  51 S22G28    30.04F
FORT WORTH     SUNNY     79  56  45 S23       29.98F
WICHITA FALLS  SUNNY     82  49  31 W8        29.96R
LUBBOCK        MOSUNNY   83  30  14 N30G43    30.08S
EL PASO        MOSUNNY   81   4   5 CALM      30.18F
$$

...MARINE OBSERVATIONS...

STATION/POSITION TIME  SKY/WX   TEMP    WIND        PRES    VSBY  WAVE   SWELL
                                AIR SEA DIR/SP/G                  HT/PER HT/PER
                 (UTC)          (F)     (DEG/KT/KT) (MB)    (MI)  (FT/S) (FT/S)
PORT ARANSAS     1900            69 68  150/ 15/ 17 1021.2F
BUOY 90 E PORT A 1900            72 70  170/ 14/ 16 1022.1F         4/ 7   2/ 7
BUOY 45 SE BAFFI 1900            71 71  170/ 17/ 19 1020.2F         4/ 6
BUOY 200 E PT IS 1900            74 73  150/ 14/ 16 1023.2F         3/ 5
BUOY 15 E GALVES 1900            68 68  180/  6/  6 1022.3F         4/ 6   3/ 6
$$


USA.gov is the U.S. government's official web portal to all federal, state and local government web resources and services.